カタログに戻る

COSMOS 2251 DEB

運用中LEO
NORAD 37340·DEBRIS·🇷🇺 Russia

打ち上げ Jun 16, 1993 から Plesetsk Cosmodrome

Loading…

次のパス (今後24時間)

TLE

最新Source: Space-Track

元期: Sep 14, 2026, 08:02 UTC

1 37340U 93036BLG 26257.33479962  .00000258  00000-0  95306-4 0  9995
2 37340  74.0244 130.0078 0018138 165.7956 194.3712 14.37176533880260

AllMySatでCOSMOS 2251 DEBをリアルタイム追跡

Download on the App Store